Vertical_Velocity
-0 1 -0 1 0 -1 1 1 -2 -1 0 -2 -1 -1 -1 0 -0 3 -0 0 -1 -1 -1 -0 0 -1 -1 -1 -0 -0 -0 -0 -0 -0 -0 -1 -0 0 -1 -2 -1 -2 -3 -1 -1 -2 -1 -1 -1
-1 0 0 2 1 2 6 -0 1 -2 -1 -1 -1 -0 1 -0 0 -1 -0 -0 -1 -1 -0 0 1 -0 -1 -0 0 -1 -0 -1 -1 -1 -0 0 -1 -2 0 -1 -2 -0 -2 -2 1 2 1 -1 1
0 1 1 0 -1 6 7 0 -1 -1 0 1 1 -0 0 0 0 -0 -0 -0 -0 -0 1 1 1 0 -0 -0 -0 -0 -1 -1 -0 -1 -1 0 -0 0 -1 1 -0 -3 -1 -1 -2 1 -1 0 0
-0 1 1 -0 3 -0 -0 -0 -0 -1 -0 -0 -1 -1 0 -0 -0 -0 -0 -0 -0 0 1 1 -0 0 0 -0 -0 0 -1 -1 -0 -1 -1 -0 -1 -2 -0 -1 0 -1 -2 -1 -0 -2 -0 0 -2
-0 1 2 -1 -1 -1 0 0 1 -1 -0 -0 0 -0 0 0 0 -0 -0 0 0 0 -0 0 0 0 0 -0 -1 -1 -0 -0 -1 -0 -0 -0 -0 -1 -1 -1 0 0 -1 -0 1 -2 -1 1 1
0 2 1 0 1 -1 -1 0 0 -0 0 -0 -0 -1 -0 -0 -0 -1 -0 1 1 1 0 1 0 -0 0 0 -1 -0 -0 -1 -1 -1 -0 0 -0 -1 -2 0 -1 1 0 -1 -0 2 -1 -4 0
0 2 -0 0 -1 0 -1 1 0 2 2 -0 -0 0 -1 -1 -1 -1 0 1 1 1 0 1 1 0 -0 -0 -0 -0 -1 -1 -1 -1 -1 -0 -0 0 -0 0 0 -0 0 -0 -1 -2 0 -2 -1
0 3 0 -1 0 -1 -0 -0 0 0 -0 1 1 1 1 0 0 -0 0 0 1 1 1 1 1 0 -0 0 0 0 0 0 -1 -1 -1 -1 -1 -1 -1 -1 -1 -1 -0 0 1 -1 -0 2 -1
1 1 1 -1 0 -3 -1 1 -0 1 0 -0 2 -1 -1 -0 -0 -0 -0 0 1 1 1 -0 0 1 -0 -0 -0 -0 -0 -1 -1 -1 -1 -1 -1 -0 -0 -0 0 -0 -1 -0 0 0 -0 -0 0
1 -0 -1 -0 -1 -2 -0 -0 -1 -0 1 -1 -0 -0 -1 -0 0 0 0 0 0 0 1 1 1 0 -0 0 0 0 -0 -1 -1 -1 -1 -1 -1 -0 -0 -0 -0 0 0 -0 -1 1 1 0 -0
-0 -0 1 -0 -1 -1 -1 -1 -1 -0 -0 -1 -0 0 -0 -1 -0 0 -0 -0 -1 -1 -0 1 2 0 0 -0 -0 -0 0 0 -0 -0 -1 -1 -1 -1 -0 -0 0 -0 -0 -0 -0 -0 -0 0 0
-0 -1 -1 -1 -2 -1 -2 -1 -1 -1 -0 1 2 1 1 1 0 -0 0 -0 1 2 1 1 1 1 2 1 0 1 1 0 -0 -0 -0 -1 -1 -1 -1 -0 -1 -0 -0 1 1 0 1 1 0
1 -1 -0 -0 -1 -1 -1 -1 -0 -0 -1 -1 0 1 0 1 2 1 -1 -1 0 1 1 1 1 1 1 1 1 -0 -0 -0 0 0 -1 -1 -0 -0 -1 -1 -1 -1 -0 -1 -0 -0 -1 -0 1
-1 -0 -0 -1 -1 -1 -1 -0 -1 -1 -2 0 -0 0 0 -0 0 -1 0 1 2 1 1 1 1 1 1 1 1 1 1 0 0 0 0 0 -0 -0 -1 -1 -1 -1 -1 -1 -1 -1 -0 0 -0
-1 -1 -0 -1 -0 -1 -0 -1 -2 -1 -1 -1 -1 0 1 -0 1 2 -0 -0 -1 0 0 0 1 1 0 0 0 0 1 -0 0 -0 0 0 0 0 -0 -1 -1 -1 -1 0 0 1 -1 0 -2
1 -1 1 -1 -1 -1 0 -0 -1 -1 -1 -1 -0 -0 -0 0 -1 -1 -0 -1 -1 -0 1 1 2 0 0 0 1 1 1 0 1 1 1 1 1 -0 -1 -1 -2 -2 -1 -1 -1 -1 -1 -0 0
-0 3 0 -1 -1 -0 0 1 -2 -0 -1 -1 -1 -0 -0 -1 -1 -0 0 -0 0 -0 0 1 1 0 -0 0 0 1 0 0 1 1 1 1 0 -0 -1 -1 -2 -2 -2 -1 -1 -1 -1 -1 -1
2 0 -1 1 -2 -0 -1 2 -3 -1 -1 -1 -0 0 0 0 -0 -1 -0 -0 -0 -0 -0 -1 -1 0 1 1 0 0 -0 0 0 1 1 1 1 1 0 -0 -1 -1 -1 -0 0 -0 -1 -1 -1
-0 0 -1 -2 -2 -2 -1 -1 1 -2 -0 0 -0 -0 -0 -0 0 -0 -0 0 -0 -0 0 1 1 2 2 2 2 1 0 -0 -0 0 1 1 0 -0 -0 -0 -1 -2 -2 -2 -2 -2 -1 -2 -3
1 1 -0 0 -0 -0 -1 -0 -3 -3 -3 -2 -1 -1 -1 -1 -1 -1 -1 -0 -0 -1 -1 -0 1 1 1 1 0 0 0 0 0 1 2 1 1 0 0 -0 -1 -1 -1 -1 -1 -1 -1 -1 -1
-0 -1 -0 1 -0 -1 -2 -8 -3 -3 -3 -3 -2 -2 -2 -2 -1 -1 -1 -1 -2 -1 -0 -1 0 -0 0 0 1 0 2 0 1 1 1 0 -0 -1 -1 -0 0 -1 -2 -2 -2 -2 -2 -2 -1
2 2 0 -0 2 0 2 -6 -6 -2 -0 -1 -1 -1 -1 -1 -2 -1 -1 -0 -1 -1 -1 -1 -1 0 1 1 1 0 -1 1 0 -1 0 -0 0 1 1 0 -0 -0 -1 -1 -1 -2 -3 -3 -3
-5 1 0 0 2 2 -3 2 -15 -1 -4 -1 -0 -1 -1 -0 -0 0 0 -0 -1 0 -1 -1 -1 -0 -1 -1 -0 2 2 0 1 1 1 1 1 0 0 1 0 -1 -1 -2 -2 -2 -3 -3 -3
1 1 1 1 3 2 -0 4 -11 -3 0 -0 0 1 1 1 -0 -1 -1 -0 -0 -1 1 0 -1 -2 -1 -1 -1 -1 1 2 2 1 0 -0 -0 0 1 1 1 0 -0 -1 -2 -2 -2 -2 -1
2 3 0 2 3 -1 -1 1 -15 3 -0 1 3 2 2 2 1 1 1 2 1 -0 -0 0 -0 1 -0 0 0 0 1 1 1 0 0 -0 -0 -0 -1 -0 -1 -1 -1 -0 -0 -1 -2 -2 -2
1 1 1 -1 1 1 -0 -6 -15 -2 -1 1 2 3 2 2 3 2 1 2 2 1 -0 1 1 1 1 2 2 3 2 2 2 1 0 -0 -0 0 0 -0 -1 -0 -1 -1 -2 -1 -2 -2 -2
1 -2 2 1 -0 1 -4 -5 -3 -4 -0 0 2 2 2 2 1 1 1 1 2 1 0 2 3 0 2 2 1 0 0 0 1 1 1 1 0 -0 -1 -0 -1 -0 -1 -1 -2 -2 -3 -2 -3
-0 2 1 1 1 -1 -0 -3 -8 -1 1 3 3 4 3 3 3 3 2 1 2 2 2 1 1 -1 -2 -0 2 3 2 0 -0 0 0 -0 -1 -1 -1 -1 -1 -2 -3 -3 -3 -2 -1 -3 -2
1 -1 -0 1 1 2 0 -4 2 1 1 3 2 3 3 4 5 4 3 2 0 1 3 3 2 2 4 3 1 2 1 2 2 -0 -1 0 -1 -1 -0 -2 -3 -2 -1 0 -1 -2 -3 -4 -4
2 0 2 1 -2 1 -1 -20 -5 -5 7 -2 2 0 3 2 0 4 6 5 5 5 2 7 -0 -1 -1 1 1 1 4 4 4 1 0 -1 0 -0 -1 -0 1 1 -1 -2 -2 -1 0 -1 -1
Height
3140 3140 3141 3142 3148 3144 3143 3144 3142 3143 3144 3143 3143 3143 3143 3143 3143 3147 3142 3141 3142 3143 3144 3145 3145 3145 3145 3145 3145 3145 3145 3145 3145 3145 3144 3143 3142 3142 3140 3140 3139 3138 3138 3138 3137 3137 3136 3136 3135
3140 3140 3141 3142 3145 3143 3142 3141 3141 3142 3142 3142 3142 3141 3141 3141 3141 3141 3141 3141 3142 3143 3144 3144 3145 3145 3145 3145 3145 3145 3145 3145 3144 3144 3143 3142 3141 3141 3140 3139 3139 3138 3138 3138 3137 3136 3136 3136 3135
3140 3140 3142 3141 3141 3141 3142 3140 3140 3141 3141 3141 3140 3140 3140 3140 3140 3140 3140 3141 3141 3142 3143 3143 3144 3145 3145 3145 3145 3145 3145 3145 3144 3144 3143 3142 3141 3140 3139 3139 3138 3138 3138 3137 3136 3136 3136 3136 3135
3139 3140 3142 3140 3141 3140 3139 3139 3140 3140 3140 3140 3140 3140 3140 3139 3139 3139 3140 3140 3140 3141 3142 3143 3144 3144 3145 3145 3145 3145 3144 3144 3144 3143 3142 3141 3140 3139 3138 3138 3138 3138 3137 3137 3136 3135 3136 3136 3136
3139 3139 3139 3138 3139 3138 3138 3138 3139 3139 3140 3139 3139 3139 3139 3138 3138 3138 3138 3139 3140 3140 3141 3142 3143 3144 3144 3145 3145 3144 3144 3143 3143 3142 3141 3140 3139 3139 3138 3137 3137 3137 3137 3137 3137 3137 3136 3136 3136
3137 3138 3138 3137 3137 3137 3137 3137 3137 3138 3138 3138 3138 3138 3138 3137 3137 3137 3137 3137 3138 3139 3140 3141 3142 3142 3143 3144 3144 3143 3143 3143 3142 3141 3140 3139 3139 3138 3138 3137 3137 3137 3137 3137 3137 3137 3136 3136 3136
3136 3136 3135 3135 3135 3135 3135 3135 3136 3136 3136 3137 3137 3136 3136 3135 3135 3135 3135 3136 3137 3138 3138 3139 3140 3141 3142 3142 3142 3142 3142 3142 3141 3141 3140 3139 3138 3138 3137 3137 3137 3137 3137 3137 3137 3137 3136 3136 3136
3134 3134 3133 3133 3134 3134 3133 3133 3134 3134 3134 3134 3134 3134 3134 3133 3133 3133 3133 3134 3135 3136 3136 3138 3139 3140 3140 3141 3141 3141 3141 3141 3141 3140 3140 3139 3138 3137 3137 3137 3136 3137 3137 3137 3137 3136 3137 3136 3136
3132 3133 3132 3131 3132 3132 3132 3132 3132 3132 3132 3131 3131 3131 3131 3130 3131 3131 3131 3132 3133 3133 3134 3135 3137 3138 3138 3139 3140 3140 3140 3140 3140 3140 3139 3138 3138 3138 3137 3136 3136 3136 3136 3137 3137 3136 3136 3136 3136
3130 3130 3129 3129 3129 3130 3130 3130 3130 3130 3129 3128 3128 3127 3128 3128 3128 3128 3128 3129 3129 3130 3132 3133 3134 3135 3136 3137 3137 3138 3138 3138 3138 3138 3138 3138 3138 3137 3137 3136 3136 3136 3136 3136 3136 3136 3136 3136 3136
3127 3128 3128 3127 3128 3128 3128 3127 3127 3127 3126 3126 3125 3124 3124 3125 3125 3125 3125 3126 3126 3127 3128 3130 3132 3133 3134 3135 3135 3136 3136 3136 3137 3137 3137 3137 3137 3137 3136 3136 3136 3136 3136 3135 3135 3135 3136 3136 3136
3126 3126 3126 3126 3126 3126 3126 3125 3125 3123 3123 3122 3121 3120 3120 3121 3121 3121 3122 3122 3123 3125 3125 3127 3129 3130 3131 3132 3132 3133 3134 3135 3135 3136 3136 3136 3137 3137 3137 3136 3136 3135 3135 3135 3134 3134 3134 3134 3135
3125 3125 3125 3125 3125 3125 3124 3123 3122 3120 3119 3119 3118 3117 3116 3116 3117 3117 3117 3118 3119 3121 3123 3124 3125 3127 3128 3129 3130 3131 3132 3133 3133 3134 3134 3135 3135 3136 3136 3135 3135 3135 3134 3134 3133 3133 3133 3133 3133
3125 3124 3124 3124 3123 3123 3122 3121 3119 3118 3116 3116 3115 3114 3113 3113 3113 3113 3114 3115 3116 3117 3119 3120 3122 3123 3124 3125 3127 3128 3129 3130 3131 3132 3133 3133 3134 3134 3135 3134 3134 3134 3133 3133 3132 3132 3132 3132 3131
3124 3124 3123 3122 3122 3121 3120 3119 3116 3115 3114 3113 3111 3111 3110 3109 3109 3110 3110 3111 3112 3114 3115 3117 3119 3120 3121 3122 3124 3125 3127 3128 3129 3130 3131 3132 3133 3133 3133 3133 3133 3133 3132 3132 3132 3132 3131 3131 3130
3123 3123 3122 3120 3119 3119 3119 3116 3114 3113 3111 3109 3109 3108 3107 3105 3105 3106 3107 3108 3109 3110 3112 3113 3115 3116 3117 3119 3120 3122 3124 3125 3127 3128 3129 3130 3131 3131 3132 3132 3132 3131 3131 3130 3130 3130 3130 3129 3128
3121 3120 3119 3118 3117 3116 3116 3113 3111 3109 3107 3106 3105 3105 3104 3103 3102 3103 3104 3105 3106 3107 3109 3110 3111 3112 3114 3115 3117 3119 3120 3122 3124 3125 3126 3127 3128 3129 3130 3130 3130 3130 3130 3130 3129 3129 3129 3128 3128
3119 3118 3117 3116 3115 3113 3112 3111 3108 3105 3104 3103 3103 3102 3101 3100 3099 3099 3100 3101 3102 3104 3105 3106 3107 3109 3110 3112 3114 3116 3117 3119 3120 3122 3124 3125 3126 3126 3127 3128 3128 3129 3129 3129 3128 3127 3127 3126 3126
3116 3115 3113 3112 3111 3110 3107 3106 3105 3102 3100 3099 3099 3099 3098 3097 3097 3096 3097 3098 3099 3100 3101 3103 3104 3105 3107 3108 3110 3112 3113 3115 3116 3118 3120 3122 3123 3124 3125 3125 3126 3126 3126 3126 3126 3125 3124 3124 3123
3113 3111 3110 3108 3107 3106 3104 3102 3100 3098 3096 3096 3095 3095 3095 3095 3094 3094 3094 3095 3096 3097 3098 3099 3100 3101 3102 3104 3105 3107 3109 3111 3113 3115 3117 3118 3119 3120 3121 3122 3122 3123 3123 3123 3123 3122 3122 3121 3120
3109 3107 3106 3106 3103 3102 3100 3097 3095 3094 3093 3092 3092 3092 3092 3092 3092 3092 3092 3092 3093 3094 3094 3095 3095 3096 3098 3099 3101 3103 3105 3107 3109 3111 3113 3114 3115 3116 3117 3118 3118 3118 3119 3119 3118 3118 3117 3117 3116
3104 3103 3102 3101 3101 3099 3097 3094 3090 3089 3088 3087 3087 3087 3088 3088 3088 3088 3088 3089 3090 3090 3090 3090 3091 3092 3093 3095 3097 3099 3100 3102 3104 3106 3108 3109 3111 3112 3113 3113 3114 3114 3113 3113 3113 3112 3112 3112 3111
3100 3098 3097 3096 3096 3095 3091 3092 3084 3083 3082 3082 3082 3082 3083 3083 3083 3084 3084 3085 3085 3086 3086 3087 3087 3088 3089 3091 3092 3094 3096 3098 3099 3101 3103 3105 3106 3107 3107 3108 3108 3108 3108 3107 3107 3106 3106 3106 3105
3095 3094 3093 3092 3091 3091 3084 3085 3079 3077 3078 3077 3077 3077 3077 3078 3079 3079 3080 3081 3082 3082 3082 3083 3084 3085 3085 3086 3088 3090 3092 3093 3095 3096 3098 3099 3100 3101 3101 3101 3101 3101 3101 3100 3100 3100 3099 3099 3098
3090 3091 3091 3089 3088 3080 3078 3080 3073 3073 3073 3073 3072 3071 3072 3072 3073 3074 3075 3077 3078 3078 3078 3079 3080 3081 3082 3083 3084 3086 3087 3089 3090 3091 3093 3093 3094 3094 3095 3095 3095 3095 3094 3094 3094 3093 3093 3092 3091
3085 3087 3086 3081 3076 3073 3076 3071 3066 3067 3067 3067 3066 3066 3067 3068 3069 3070 3071 3072 3073 3074 3074 3074 3075 3077 3078 3079 3080 3081 3082 3083 3085 3086 3087 3087 3088 3088 3088 3088 3087 3087 3087 3087 3086 3085 3085 3085 3084
3082 3082 3083 3081 3078 3077 3068 3063 3062 3061 3061 3062 3061 3062 3062 3064 3065 3066 3067 3068 3068 3069 3069 3070 3070 3071 3073 3074 3075 3076 3077 3078 3078 3079 3080 3080 3080 3081 3081 3080 3080 3080 3080 3080 3079 3079 3078 3078 3077
3080 3081 3080 3079 3075 3065 3059 3059 3058 3057 3057 3057 3058 3057 3058 3060 3061 3061 3062 3062 3063 3063 3064 3065 3065 3066 3067 3069 3069 3071 3071 3072 3072 3073 3073 3073 3073 3073 3073 3073 3073 3073 3073 3072 3072 3071 3070 3070 3069
3076 3075 3076 3076 3072 3065 3056 3054 3055 3055 3054 3054 3054 3054 3055 3056 3056 3057 3057 3056 3056 3057 3058 3058 3060 3061 3062 3062 3062 3063 3064 3065 3065 3065 3066 3066 3066 3067 3067 3067 3066 3065 3065 3064 3063 3063 3062 3061 3060
3070 3069 3070 3071 3066 3064 3062 3048 3053 3053 3053 3052 3053 3053 3052 3052 3053 3052 3052 3051 3051 3051 3053 3053 3053 3053 3054 3055 3055 3055 3055 3056 3057 3058 3058 3059 3059 3059 3059 3059 3058 3057 3056 3055 3054 3053 3052 3052 3051